Grand Junction, CO

5:04 PM MDT on June 19, 2018 (GMT -0600)
Walker

Weather History for KGJT - September, 2017

Change the Weather History Date:

Monday, September 11, 2017

  Actual Average Record
Temperature  
Mean Temperature 76 °F 68 °F  
Max Temperature 90 °F 82 °F 94 °F (1990)
Min Temperature 61 °F 54 °F 38 °F (1898)
Degree Days  
Heating Degree Days 0 1  
Month to date heating degree days 0 7  
Since 1 July heating degree days 0 10  
Cooling Degree Days 11 4  
Month to date cooling degree days 138 62  
Year to date cooling degree days 1434 1081  
Growing Degree Days 26 (Base 50)    
Moisture  
Dew Point 49 °F    
Average Humidity 46    
Maximum Humidity 72    
Minimum Humidity 19    
Precipitation  
Precipitation T in 0.03 in 0.99 in (1982)
Month to date precipitation T 0.41  
Year to date precipitation 4.01 6.26  
Snow  
Snow 0.00 in 0.00 in 0.00 in (2002)
Month to date snowfall 0.0 0.0  
Since 1 July snowfall 0.0 0.0  
Since 1 September snowfall 0.0 0.0  
Snow Depth 0.00 in    
Sea Level Pressure  
Sea Level Pressure 30.01 in    
Wind  
Wind Speed 10 mph (SSE)    
Max Wind Speed 26 mph    
Max Gust Speed 34 mph    
Visibility 10 miles    
Events Rain    
T = Trace of Precipitation, MM = Missing Value Source: NWS Daily Summary

Daily Weather History Graph

Daily Weather History Graph

Search for Another Location

Airport or City:

Astronomy

Sep. 11, 2017 Rise Set
Actual Time 6:52 AM MDT 7:28 PM MDT
Civil Twilight 6:25 AM MDT 7:55 PM MDT
Nautical Twilight 5:53 AM MDT 8:26 PM MDT
Astronomical Twilight 5:20 AM MDT 8:59 PM MDT
Moon 11:13 PM MDT (9/11) 12:32 PM MDT (9/11)
Length of Visible Light 13h 30m
Length of Day
12h 36m
Waning Gibbous, 67% of the Moon is Illuminated
Sep 11
Waning Gibbous
Sep 13
Last Quarter
Sep 19
New
Sep 27
First Quarter
Oct 5
Full

Hourly Weather History & Observations

Time (MDT) Temp. Dew Point Humidity Pressure Visibility Wind Dir Wind Speed Gust Speed Precip Events Conditions
12:53 AM 71.1 °F 55.0 °F 57% 30.04 in 10.0 mi East 19.6 mph 25.3 mph 0.00 in Rain Light Rain
1:53 AM 72.0 °F 53.1 °F 51% 30.04 in 10.0 mi East 9.2 mph - 0.00 in   Overcast
2:53 AM 73.0 °F 51.1 °F 46% 30.02 in 10.0 mi Variable 4.6 mph - N/A   Clear
3:53 AM 68.0 °F 52.0 °F 56% 30.03 in 10.0 mi SSE 8.1 mph - N/A   Clear
4:53 AM 64.9 °F 52.0 °F 63% 30.04 in 10.0 mi ESE 12.7 mph - N/A   Clear
5:53 AM 66.0 °F 53.1 °F 63% 30.05 in 10.0 mi East 6.9 mph - N/A   Clear
6:53 AM 64.0 °F 51.1 °F 63% 30.08 in 10.0 mi SSE 8.1 mph - N/A   Clear
7:53 AM 63.0 °F 53.1 °F 70% 30.10 in 10.0 mi ESE 10.4 mph - N/A   Clear
8:53 AM 71.1 °F 54.0 °F 55% 30.09 in 10.0 mi SSE 6.9 mph - N/A   Clear
9:53 AM 75.9 °F 52.0 °F 43% 30.09 in 10.0 mi SE 15.0 mph - N/A   Clear
10:53 AM 78.1 °F 51.1 °F 39% 30.08 in 10.0 mi SSE 11.5 mph - N/A   Clear
11:53 AM 78.1 °F 51.1 °F 39% 30.05 in 10.0 mi South 9.2 mph - N/A   Clear
12:53 PM 82.9 °F 46.9 °F 28% 30.02 in 10.0 mi Variable 3.5 mph - N/A   Clear
1:53 PM 87.1 °F 46.0 °F 24% 29.98 in 10.0 mi WSW 8.1 mph - N/A   Clear
2:53 PM 87.1 °F 46.0 °F 24% 29.95 in 10.0 mi Variable 5.8 mph - N/A   Clear
3:53 PM 88.0 °F 46.0 °F 23% 29.94 in 10.0 mi SW 9.2 mph - N/A   Clear
4:53 PM 90.0 °F 43.0 °F 19% 29.93 in 10.0 mi SW 5.8 mph - N/A   Scattered Clouds
5:53 PM 86.0 °F 46.9 °F 26% 29.94 in 10.0 mi NNW 13.8 mph - N/A   Scattered Clouds
6:53 PM 87.1 °F 43.0 °F 21% 29.94 in 10.0 mi North - - 0.00 in   Scattered Clouds
7:53 PM 86.0 °F 39.9 °F 20% 29.94 in 10.0 mi West 9.2 mph - N/A   Clear
8:53 PM 84.0 °F 46.0 °F 26% 29.95 in 10.0 mi SSE 16.1 mph - 0.00 in   Mostly Cloudy
9:53 PM 79.0 °F 46.9 °F 32% 29.95 in 10.0 mi SE 6.9 mph - N/A   Clear
10:53 PM 77.0 °F 46.9 °F 34% 29.96 in 10.0 mi ESE 10.4 mph - N/A   Clear
11:53 PM 75.0 °F 46.9 °F 37% 29.97 in 10.0 mi ESE 12.7 mph - N/A   Clear